Starlink 31593

operational
NORAD ID: 59350 Int'l Des: 2024-060 Owner: SPXS Country: US Constellation: starlink
LEOCIRCULAR

About Starlink 31593

Description loading...

Live Position

Loading 3D Globe...

Upcoming Passes

Altitude History

Altitude vs Time

uPlot chart will show altitude changes over time

Two-Line Element Set

1 59350U 24060C 26036.16855129 -.00002397 00000-0 -77580-4 0 9992
2 59350 43.0051 83.1351 0001992 289.8005 70.2632 15.27581180105094
Epoch: Feb 5, 2026 • Age: 14 hours

Current Status

Altitude 486.4 km
Velocity 7.63 km/s
Sub-Earth Point 39.42°N, 88.07°E
Launch Date Mar 31, 2024
Age 1.8 years
Type internet

Technical Details

Classification Payload
Mass 730.00 kg
Dry Mass 700.00 kg
Total Mass 730.00 kg
Length 0.30 m
Diameter 4.10 m
Span 29.00 m
Shape Box + pan
Manufacturer SPXS
Bus Type Starlink V2M
Phase Status In Orbit
Owner/State SPXS/US

Large Constellations

Loading constellations...